Terminal Aerodrome Forecast
Issued by NWS

Home | Current Version | Previous Version | Text Only | Print | Product List | Glossary On
Versions: 1 2 3 4 5 6 7 8 9 10 11 12 13 14 15
000
FTUS46 KMFR 161100
TAFLMT
TAF
KLMT 161120Z 1612/1712 17007KT P6SM SKC
     FM162100 21009G14KT P6SM SCT100 BKN200
     FM170400 VRB03KT P6SM SCT100 BKN200=

USA.gov is the U.S. government's official web portal to all federal, state and local government web resources and services.